Flag for U.S.A. Weather past 2 weeks in Brownsville, Texas, U.S.A.

Now
82 °F

Sunny.


Feels Like: 84 °F
Forecast: 67 / 83 °F
Wind: 7 mph from North

Location: Brownsville / South Padre Island International Airport

Current Time: Oct 24, 2014 at 11:58:07 AM

Latest Report: Oct 24, 2014 at 10:53 AM


Visibility: 10 mi

Pressure: 30.14 "Hg

Humidity: 58%

Dew point: 66 °F

Location of BrownsvilleLocation

Historic Weather in Brownsville — Graph

°F

Brownsville temperature yesterday

Maximum temperature yesterday: 86 °F (at 1:53 PM)
Minimum temperature yesterday: 68 °F (at 5:53 AM)
Average temperature yesterday: 75 °F

Past Weeks' High & Low Weather Summary

 TemperatureHumidityPressure
High91 °F (Oct 13, 3:53 PM)97% (Oct 18, 5:53 AM)30.16 "Hg (Oct 18, 5:53 AM)
Low57 °F (Oct 15, 3:53 AM)26% (Oct 15, 2:53 PM)29.74 "Hg (Oct 13, 4:53 AM)
Average77 °F74%29.95 "Hg
* Reported Oct 9 9:53 AM — Oct 24 9:53 AM, Brownsville, Weather by CustomWeather, © 2014

Note: Actual official high and low records may vary slightly from our data, if they occured in-between our weather recording intervals... More about our weather records

Advertising

Brownsville weather history for previous 24 hours

 ConditionsComfort  
Time TempWeatherWind HumidityBarometerVisibility
9:53 AM
Oct 24
78 °FSunny.8 mph71%30.13 "Hg10 mi
8:53 AM74 °FSunny.5 mph82%30.11 "Hg8 mi
7:53 AM70 °FFog.6 mph90%30.09 "Hg6 mi
6:53 AM68 °FClear.5 mph93%30.07 "Hg8 mi
5:53 AM68 °FPassing clouds.6 mph93%30.05 "Hg7 mi
4:53 AM67 °FClear.6 mph97%30.05 "Hg7 mi
3:53 AM67 °FClear.6 mph93%30.05 "Hg8 mi
2:53 AM67 °FClear.3 mph93%30.06 "Hg7 mi
1:53 AM68 °FClear.3 mph93%30.07 "Hg8 mi
12:53 AM69 °FClear.No wind90%30.07 "Hg9 mi
11:53 PM
Oct 23
70 °FClear.5 mph87%30.07 "Hg10 mi
10:53 PM71 °FClear.5 mph84%30.07 "Hg10 mi
9:53 PM72 °FClear.3 mph81%30.07 "Hg10 mi
8:53 PM74 °FClear.7 mph79%30.06 "Hg10 mi
7:53 PM74 °FSunny.6 mph82%30.04 "Hg10 mi
6:53 PM77 °FSunny.7 mph71%30.03 "Hg10 mi
5:53 PM81 °FSunny.10 mph62%30.02 "Hg10 mi
4:53 PM83 °FPassing clouds.9 mph59%30.01 "Hg10 mi
3:53 PM85 °FPassing clouds.12 mph57%30.01 "Hg10 mi
2:53 PM83 °FScattered clouds.8 mph59%30.02 "Hg10 mi
1:53 PM86 °FPassing clouds.8 mph53%30.04 "Hg10 mi
12:53 PM83 °FPassing clouds.7 mph61%30.06 "Hg10 mi
Weather by CustomWeather, © 2014

See weather overviewHow to use our weather pages